Regional Weather Roundup
Issued by NWS Cleveland, OH

Home | Current Version | Previous Version | Graphics & Text | Print | Product List | Glossary On
Versions: 1 2 3 4 5 6 7 8 9 10 11 12 13 14 15 16 17 18 19 20 21 22 23 24 25 26 27 28 29 30 31 32 33 34 35 36 37 38 39 40 41 42 43 44 45 46 47 48 49 50
000
ASUS41 KCLE 270500
RWRCLE
OHIO REGIONAL WEATHER ROUNDUP
NATIONAL WEATHER SERVICE WILMINGTON, OH
100 AM EDT THU JUL 27 2017

NOTE: "FAIR" INDICATES FEW OR NO CLOUDS BELOW 12,000 FEET WITH NO
SIGNIFICANT WEATHER AND/OR OBSTRUCTIONS TO VISIBILITY.

OHZ001>008-015>018-024>027-034-035-043-044-270600-
   NORTHWEST OHIO

CITY           SKY/WX    TMP DP  RH WIND       PRES   REMARKS
DEFIANCE       FAIR      71  63  75 S3        30.00F
FINDLAY        FAIR      69  63  81 S5        30.01F
TOLEDO EXPRESS FAIR      67  66  97 S3        30.00F
TOLEDO EXEC    FAIR      71  66  84 SE5       30.01F
LIMA           FAIR      68  65  90 SE6       30.02F
$$

OHZ009>014-019>023-028>033-038-089-270600-
   NORTHEAST OHIO

CITY           SKY/WX    TMP DP  RH WIND       PRES   REMARKS
CLE-HOPKINS    MOCLDY    71  64  78 S7        30.04S
CLE-LAKEFRONT  FAIR      72  63  73 S10       30.01F
CUY CO. ARPT   NOT AVBL
LORAIN-ELYRIA    N/A    N/A N/A N/A MISG      30.02F
ASHTABULA      FAIR      64  63  96 SE5       30.04F
AKRON-CANTON   MOCLDY    68  61  78 CALM      30.06F
WOOSTER        NOT AVBL
MANSFIELD      FAIR      68  64  87 S5        30.05F
YOUNGSTOWN     CLOUDY    65  63  93 E8        30.03F
$$

OHZ042-051>053-060>062-070>072-077>081-270600-
  SOUTHWEST OHIO

CITY           SKY/WX    TMP DP  RH WIND       PRES   REMARKS
CINC-COVINGTON MOCLDY    77  70  79 SE7       30.01F
CINC-LUNKEN    MOCLDY    72  72 100 CALM      30.01F
HAMILTON       FAIR      74  70  87 NE3       30.01F
DAYTON         NOT AVBL
WRIGHT-PAT AFB CLOUDY    70  66  85 CALM      30.02F
DAYTON GENERAL FAIR      73  65  75 SE5       30.02F
WILMINGTON     FAIR      68  65  90 SE3       30.03F
$$

OHZ036-037-039>041-045>050-054>059-063>069-073>076-082>088-270600-
  CENTRAL AND SOUTHEAST OHIO

CITY           SKY/WX    TMP DP  RH WIND       PRES   REMARKS
COLUMBUS       CLOUDY    69  65  86 CALM      30.04S
OSU AIRPORT    FAIR      67  64  90 CALM      30.04F
BOLTON FIELD   NOT AVBL
RICKENBACK AFB NOT AVBL
NEWARK         FAIR      64  63  96 CALM      30.04F FOG
MARION         FAIR      68  63  84 S3        30.04F
LANCASTER      FAIR      64  63  96 CALM      30.05F
ZANESVILLE     FAIR      67  64  90 CALM      30.04F
NEW PHILLY     FAIR      66  65  96 CALM      30.06F
$$




USA.gov is the U.S. government's official web portal to all federal, state and local government web resources and services.